St. George, UT

7:31 PM MDT on September 19, 2017 (GMT -0600)
Saint George Municipal

Weather History for KSGU - March, 2014

Change the Weather History Date:

Saturday, March 1, 2014

  Actual Average Record
Temperature  
Mean Temperature 50 °F -  
Max Temperature 57 °F 64 °F 83 °F (1986)
Min Temperature 44 °F 38 °F 19 °F (1962)
Degree Days  
Heating Degree Days 14    
Moisture  
Dew Point 38 °F    
Average Humidity 60    
Maximum Humidity 82    
Minimum Humidity 44    
Precipitation  
Precipitation 0.08 in - - ()
Sea Level Pressure  
Sea Level Pressure 29.81 in    
Wind  
Wind Speed 7 mph (SSW)    
Max Wind Speed 14 mph    
Max Gust Speed 21 mph    
Visibility 10 miles    
Events Thunderstorm    
Averages and records for this station are not official NWS values.
T = Trace of Precipitation, MM = Missing Value Source: NWS Daily Summary

Daily Weather History Graph

Daily Weather History Graph

Search for Another Location

Airport or City:

Trip Planner

Search our weather history database for the weather conditions in past years. The results will help you decide how hot, cold, wet, or windy it might be!

Date:

Astronomy

Mar. 01, 2014 Rise Set
Actual Time 7:04 AM MST 6:28 PM MST
Civil Twilight 6:38 AM MST 6:54 PM MST
Nautical Twilight 6:08 AM MST 7:24 PM MST
Astronomical Twilight 5:38 AM MST 7:54 PM MST
Moon 7:02 AM MST (3/1) 7:18 PM MST (3/1)
Length of Visible Light 12h 15m
Length of Day
11h 23m
New Moon, 0% of the Moon is Illuminated
Mar 1
New Moon
Mar 8
First Quarter
Mar 16
Full
Mar 23
Last Quarter
Mar 30
New

Hourly Weather History & Observations

Time (MST) Temp. Windchill Dew Point Humidity Pressure Visibility Wind Dir Wind Speed Gust Speed Precip Events Conditions
12:15 AM 50.0 °F - 42.8 °F 76% 29.72 in 10.0 mi WSW 10.4 mph - N/A   Mostly Cloudy
12:35 AM 48.2 °F - 42.8 °F 82% 29.71 in 10.0 mi South 6.9 mph - N/A   Mostly Cloudy
12:55 AM 51.8 °F - 39.2 °F 62% 29.69 in 10.0 mi SSE 5.8 mph - N/A   Mostly Cloudy
1:15 AM 51.8 °F - 39.2 °F 62% 29.69 in 10.0 mi South 13.8 mph 20.7 mph N/A   Partly Cloudy
1:35 AM 50.0 °F - 39.2 °F 66% 29.70 in 10.0 mi WSW 10.4 mph - N/A   Partly Cloudy
1:55 AM 48.2 °F - 39.2 °F 71% 29.71 in 10.0 mi West 3.5 mph - N/A   Partly Cloudy
2:15 AM 50.0 °F - 39.2 °F 66% 29.72 in 10.0 mi North 3.5 mph - N/A   Partly Cloudy
2:55 AM 48.2 °F - 39.2 °F 71% 29.73 in 10.0 mi SE 4.6 mph - N/A   Mostly Cloudy
3:15 AM 48.2 °F - 39.2 °F 71% 29.73 in 10.0 mi Calm Calm - N/A   Partly Cloudy
3:35 AM 48.2 °F - 39.2 °F 71% 29.73 in 10.0 mi South 10.4 mph - N/A   Clear
3:55 AM 50.0 °F - 37.4 °F 62% 29.72 in 10.0 mi South 9.2 mph - N/A   Clear
4:15 AM 48.2 °F - 37.4 °F 66% 29.72 in 10.0 mi South 12.7 mph - N/A   Clear
4:35 AM 48.2 °F - 37.4 °F 66% 29.74 in 10.0 mi WSW 8.1 mph - N/A   Clear
4:55 AM 50.0 °F - 37.4 °F 62% 29.74 in 10.0 mi South 3.5 mph - N/A   Clear
5:15 AM 48.2 °F - 37.4 °F 66% 29.75 in 10.0 mi South 5.8 mph - N/A   Scattered Clouds
5:35 AM 48.2 °F - 37.4 °F 66% 29.75 in 10.0 mi SSE 3.5 mph - N/A   Partly Cloudy
5:55 AM 48.2 °F - 35.6 °F 62% 29.76 in 10.0 mi South 8.1 mph - N/A   Clear
6:15 AM 48.2 °F - 37.4 °F 66% 29.76 in 10.0 mi South 13.8 mph - N/A   Clear
6:35 AM 48.2 °F - 37.4 °F 66% 29.78 in 10.0 mi NNW 5.8 mph - N/A   Scattered Clouds
6:55 AM 48.2 °F - 37.4 °F 66% 29.78 in 10.0 mi SSE 5.8 mph - N/A   Partly Cloudy
7:15 AM 46.4 °F 42.9 °F 35.6 °F 66% 29.79 in 10.0 mi SSE 6.9 mph - N/A   Partly Cloudy
7:35 AM 48.2 °F - 37.4 °F 66% 29.80 in 10.0 mi WSW 3.5 mph - N/A   Partly Cloudy
7:55 AM 48.2 °F - 37.4 °F 66% 29.81 in 10.0 mi SSE 5.8 mph - N/A   Scattered Clouds
8:15 AM 50.0 °F - 37.4 °F 62% 29.81 in 10.0 mi SSE 9.2 mph - N/A   Mostly Cloudy
8:35 AM 51.8 °F - 39.2 °F 62% 29.82 in 10.0 mi SSE 11.5 mph - N/A   Mostly Cloudy
8:55 AM 51.8 °F - 39.2 °F 62% 29.83 in 10.0 mi SSE 8.1 mph - N/A   Scattered Clouds
9:15 AM 51.8 °F - 39.2 °F 62% 29.84 in 10.0 mi South 6.9 mph - N/A   Mostly Cloudy
9:35 AM 51.8 °F - 39.2 °F 62% 29.85 in 10.0 mi WSW 5.8 mph - N/A   Overcast
9:55 AM 51.8 °F - 39.2 °F 62% 29.85 in 10.0 mi West 6.9 mph - N/A   Mostly Cloudy
10:15 AM 51.8 °F - 39.2 °F 62% 29.85 in 10.0 mi West 5.8 mph - N/A   Mostly Cloudy
10:35 AM 51.8 °F - 41.0 °F 67% 29.86 in 10.0 mi West 5.8 mph - N/A   Mostly Cloudy
10:55 AM 53.6 °F - 39.2 °F 58% 29.86 in 10.0 mi West 5.8 mph - N/A   Mostly Cloudy
11:15 AM 53.6 °F - 39.2 °F 58% 29.86 in 10.0 mi WNW 5.8 mph - N/A   Partly Cloudy
11:35 AM 55.4 °F - 39.2 °F 54% 29.86 in 10.0 mi West 4.6 mph - N/A   Partly Cloudy
11:55 AM 55.4 °F - 37.4 °F 51% 29.86 in 10.0 mi WNW 4.6 mph - N/A   Mostly Cloudy
12:15 PM 55.4 °F - 37.4 °F 51% 29.85 in 10.0 mi West 4.6 mph - N/A   Overcast
12:35 PM 55.4 °F - 37.4 °F 51% 29.85 in 10.0 mi WNW 5.8 mph - N/A   Mostly Cloudy
12:55 PM 55.4 °F - 35.6 °F 47% 29.84 in 10.0 mi Calm Calm - N/A   Partly Cloudy
1:15 PM 57.2 °F - 37.4 °F 48% 29.84 in 10.0 mi West 3.5 mph - N/A   Clear
1:35 PM 57.2 °F - 35.6 °F 44% 29.83 in 10.0 mi WNW 9.2 mph - N/A   Partly Cloudy
1:55 PM 57.2 °F - 37.4 °F 48% 29.83 in 10.0 mi WSW 9.2 mph - N/A   Mostly Cloudy
2:15 PM 57.2 °F - 35.6 °F 44% 29.82 in 10.0 mi WSW 12.7 mph - N/A   Mostly Cloudy
2:35 PM 57.2 °F - 37.4 °F 48% 29.82 in 10.0 mi WNW 11.5 mph - N/A   Mostly Cloudy
2:55 PM 57.2 °F - 35.6 °F 44% 29.82 in 10.0 mi West 12.7 mph - N/A   Scattered Clouds
3:15 PM 57.2 °F - 35.6 °F 44% 29.82 in 10.0 mi WSW 10.4 mph - N/A Thunderstorm Mostly Cloudy
3:35 PM 55.4 °F - 39.2 °F 54% 29.82 in 10.0 mi SE 10.4 mph - N/A   Overcast
3:55 PM 55.4 °F - 39.2 °F 54% 29.82 in 10.0 mi SSE 6.9 mph - N/A   Overcast
4:15 PM 57.2 °F - 37.4 °F 48% 29.82 in 10.0 mi SW 5.8 mph - N/A   Scattered Clouds
4:35 PM 57.2 °F - 35.6 °F 44% 29.81 in 10.0 mi WSW 6.9 mph - N/A   Partly Cloudy
4:55 PM 57.2 °F - 35.6 °F 44% 29.81 in 10.0 mi WSW 8.1 mph - N/A   Mostly Cloudy
5:15 PM 57.2 °F - 35.6 °F 44% 29.81 in 10.0 mi SW 8.1 mph - N/A   Partly Cloudy
5:35 PM 57.2 °F - 35.6 °F 44% 29.81 in 10.0 mi WSW 8.1 mph - N/A   Clear
5:55 PM 55.4 °F - 35.6 °F 47% 29.82 in 10.0 mi WSW 5.8 mph - N/A   Partly Cloudy
6:15 PM 55.4 °F - 35.6 °F 47% 29.83 in 10.0 mi SSE 4.6 mph - N/A   Mostly Cloudy
6:35 PM 55.4 °F - 37.4 °F 51% 29.83 in 10.0 mi South 3.5 mph - N/A   Mostly Cloudy
6:55 PM 51.8 °F - 39.2 °F 62% 29.84 in 10.0 mi SSE 4.6 mph - N/A   Mostly Cloudy
7:15 PM 51.8 °F - 39.2 °F 62% 29.84 in 10.0 mi SE 4.6 mph - N/A   Mostly Cloudy
7:35 PM 50.0 °F - 39.2 °F 66% 29.85 in 10.0 mi SSE 3.5 mph - N/A   Partly Cloudy
7:55 PM 51.8 °F - 37.4 °F 58% 29.85 in 10.0 mi ESE 4.6 mph - N/A   Clear
8:15 PM 50.0 °F - 37.4 °F 62% 29.85 in 10.0 mi SE 4.6 mph - N/A   Clear
8:35 PM 50.0 °F - 37.4 °F 62% 29.85 in 10.0 mi ESE 3.5 mph - N/A   Clear
8:55 PM 50.0 °F - 37.4 °F 62% 29.85 in 10.0 mi Calm Calm - N/A   Clear
9:15 PM 50.0 °F - 37.4 °F 62% 29.85 in 10.0 mi NNE 3.5 mph - N/A   Clear
9:35 PM 48.2 °F - 37.4 °F 66% 29.86 in 10.0 mi NNW 5.8 mph - N/A   Clear
9:55 PM 48.2 °F - 37.4 °F 66% 29.85 in 10.0 mi NNW 5.8 mph - N/A   Clear
10:15 PM 48.2 °F - 37.4 °F 66% 29.86 in 10.0 mi Calm Calm - N/A   Clear
10:35 PM 44.6 °F 40.2 °F 37.4 °F 76% 29.88 in 10.0 mi SSE 8.1 mph - N/A   Clear
10:55 PM 44.6 °F 40.7 °F 37.4 °F 76% 29.88 in 10.0 mi SE 6.9 mph - N/A   Clear
11:15 PM 44.6 °F 40.7 °F 37.4 °F 76% 29.88 in 10.0 mi SE 6.9 mph - N/A   Clear
11:35 PM 44.6 °F - 35.6 °F 71% 29.88 in 10.0 mi Calm Calm - N/A   Clear
11:55 PM 44.6 °F - 35.6 °F 71% 29.89 in 10.0 mi Calm Calm - N/A   Mostly Cloudy